EW5462 Weather Reports


Display with metric or nautical units.
time (UTC)temp
F
wind
direction
speed
MPH
gust
MPH
rain 1hr
in
rain 24hr
in
rain mn
in
humidity
%
barometer
mb
20260508065216 76 174 4.0 5.0 0.00 0.00 0.00 36 1009.4
20260508064217 76 161 4.0 6.0 0.00 0.00 0.00 36 1009.6
20260508063216 76 191 2.0 5.0 0.00 0.00 0.00 36 1009.6
20260508062217 76 184 3.0 5.0 0.00 0.00 0.00 35 1009.6
20260508061217 77 211 3.0 5.0 0.00 0.00 0.00 34 1009.6
20260508060216 78 172 5.0 6.0 0.00 0.00 0.00 34 1009.3
20260508055216 78 152 7.0 8.0 0.00 0.00 0.00 32 1009.0
20260508054217 79 187 5.0 7.0 0.00 0.00 0.00 32 1009.1
20260508053216 79 191 5.0 6.0 0.00 0.00 0.00 29 1009.1
20260508052716 79 194 4.0 6.0 0.00 0.00 0.00 27 1009.1
20260508051717 80 204 3.0 6.0 0.00 0.00 0.00 26 1009.0
20260508050716 80 216 5.0 7.0 0.00 0.00 0.00 22 1009.0
20260508045717 80 207 3.0 4.0 0.00 0.00 0.00 22 1008.8
20260508044716 81 214 2.0 3.0 0.00 0.00 0.00 21 1008.6
20260508043717 81 219 3.0 4.0 0.00 0.00 0.00 21 1008.6
20260508042716 82 217 3.0 4.0 0.00 0.00 0.00 21 1008.5
20260508041717 83 222 1.0 2.0 0.00 0.00 0.00 20 1008.4
20260508040817 83 212 2.0 3.0 0.00 0.00 0.00 21 1008.3
20260508035816 84 216 3.0 4.0 0.00 0.00 0.00 20 1008.2
20260508034817 84 215 2.0 4.0 0.00 0.00 0.00 21 1008.0
20260508033817 85 208 3.0 5.0 0.00 0.00 0.00 20 1007.9
20260508032817 85 212 4.0 5.0 0.00 0.00 0.00 20 1007.8
20260508031817 87 215 4.0 5.0 0.00 0.00 0.00 19 1007.7
20260508030816 87 218 3.0 5.0 0.00 0.00 0.00 19 1007.6
20260508025817 88 224 4.0 5.0 0.00 0.00 0.00 19 1007.4
20260508024818 89 222 4.0 5.0 0.00 0.00 0.00 18 1007.3
20260508023817 90 230 4.0 5.0 0.00 0.00 0.00 18 1007.1
20260508022817 91 223 3.0 5.0 0.00 0.00 0.00 17 1007.1
20260508021816 91 229 3.0 7.0 0.00 0.00 0.00 17 1006.9
20260508020817 93 230 5.0 6.0 0.00 0.00 0.00 16 1006.8
20260508015816 94 220 5.0 6.0 0.00 0.00 0.00 16 1006.7
20260508014817 95 229 5.0 7.0 0.00 0.00 0.00 15 1006.7
20260508013817 96 234 5.0 7.0 0.00 0.00 0.00 15 1006.7
20260508013217 96 228 8.0 10.0 0.00 0.00 0.00 14 1006.6
20260508012216 97 232 6.0 8.0 0.00 0.00 0.00 13 1006.6
20260508011217 97 232 6.0 8.0 0.00 0.00 0.00 13 1006.6
20260508010216 98 232 7.0 9.0 0.00 0.00 0.00 13 1006.5
20260508005217 98 220 7.0 9.0 0.00 0.00 0.00 12 1006.5
20260508004217 98 210 8.0 10.0 0.00 0.00 0.00 13 1006.4
20260508003217 99 233 7.0 9.0 0.00 0.00 0.00 12 1006.4
20260508002217 100 191 7.0 9.0 0.00 0.00 0.00 12 1006.4
20260508001217 99 226 6.0 8.0 0.00 0.00 0.00 12 1006.5
20260508000219 99 238 6.0 8.0 0.00 0.00 0.00 12 1006.5
20260507235217 99 229 6.0 9.0 0.00 0.00 0.00 12 1006.5
20260507234216 98 252 3.0 4.0 0.00 0.00 0.00 13 1006.6
20260507233217 99 253 6.0 8.0 0.00 0.00 0.00 12 1006.6
20260507232216 100 228 5.0 7.0 0.00 0.00 0.00 12 1006.6
20260507231217 99 215 5.0 6.0 0.00 0.00 0.00 13 1006.7
20260507230217 99 226 5.0 8.0 0.00 0.00 0.00 13 1006.8
20260507224217 99 209 6.0 8.0 0.00 0.00 0.00 14 1007.1
20260507223217 99 215 6.0 7.0 0.00 0.00 0.00 12 1007.3
20260507222217 98 247 3.0 5.0 0.00 0.00 0.00 14 1007.5
20260507221216 99 264 6.0 8.0 0.00 0.00 0.00 13 1007.7
20260507220217 97 275 3.0 5.0 0.00 0.00 0.00 14 1007.8
20260507215216 97 250 4.0 6.0 0.00 0.00 0.00 14 1008.0
20260507214217 97 273 4.0 7.0 0.00 0.00 0.00 15 1008.2
20260507213217 97 294 4.0 6.0 0.00 0.00 0.00 15 1008.3
20260507212217 95 108 0.0 1.0 0.00 0.00 0.00 15 1008.4
20260507211216 97 250 5.0 6.0 0.00 0.00 0.00 15 1008.7
20260507210217 95 13 2.0 3.0 0.00 0.00 0.00 16 1008.8
20260507205216 95 254 5.0 6.0 0.00 0.00 0.00 15 1008.9
20260507204216 94 270 1.0 3.0 0.00 0.00 0.00 19 1009.2
20260507202216 94 212 2.0 5.0 0.00 0.00 0.00 17 1009.4
20260507201217 94 314 4.0 6.0 0.00 0.00 0.00 16 1009.6
20260507200217 94 222 3.0 5.0 0.00 0.00 0.00 16 1009.9
20260507195216 93 336 5.0 6.0 0.00 0.00 0.00 17 1009.9
20260507194217 94 238 7.0 9.0 0.00 0.00 0.00 17 1010.1
20260507193216 94 248 5.0 7.0 0.00 0.00 0.00 17 1010.3
20260507192217 92 0 2.0 5.0 0.00 0.00 0.00 18 1010.5
20260507191217 92 358 3.0 5.0 0.00 0.00 0.00 18 1010.6
20260507190217 91 331 5.0 7.0 0.00 0.00 0.00 18 1010.7
20260507185217 91 262 0.0 2.0 0.00 0.00 0.00 18 1010.9
20260507184217 91 232 4.0 6.0 0.00 0.00 0.00 19 1011.0
20260507183217 90 258 4.0 6.0 0.00 0.00 0.00 19 1011.2
20260507182216 89 296 1.0 4.0 0.00 0.00 0.00 20 1011.3
20260507181217 89 284 5.0 5.0 0.00 0.00 0.00 21 1011.4
20260507181017 89 259 3.0 5.0 0.00 0.00 0.00 21 1011.4
20260507180017 89 44 1.0 2.0 0.00 0.00 0.00 21 1011.5
20260507175016 87 345 4.0 6.0 0.00 0.00 0.00 22 1011.6
20260507174017 86 350 0.0 1.0 0.00 0.00 0.00 22 1011.7
20260507173016 86 341 2.0 4.0 0.00 0.00 0.00 22 1011.9
20260507172017 85 352 1.0 4.0 0.00 0.00 0.00 23 1012.0
20260507171017 85 333 2.0 3.0 0.00 0.00 0.00 24 1012.0
20260507170017 85 305 2.0 3.0 0.00 0.00 0.00 26 1012.1
20260507165017 84 284 3.0 3.0 0.00 0.00 0.00 26 1012.1
20260507164017 84 99 1.0 2.0 0.00 0.00 0.00 28 1012.1
20260507163016 83 16 2.0 3.0 0.00 0.00 0.00 25 1012.2
20260507162017 82 352 1.0 2.0 0.00 0.00 0.00 25 1012.3
20260507161017 82 26 0.0 2.0 0.00 0.00 0.00 26 1012.3
20260507160016 81 341 0.0 0.0 0.00 0.00 0.00 26 1012.3
20260507155017 80 267 0.0 1.0 0.00 0.00 0.00 24 1012.4
20260507153017 78 0.0 0.0 0.00 0.00 0.00 27 1012.4
20260507152103 77 257 0.0 0.0 0.00 0.00 0.00 26 1012.4
20260507151017 76 0.0 0.0 0.00 0.00 0.00 30 1012.4
20260507150017 74 0.0 0.0 0.00 0.00 0.00 29 1012.4
20260507145016 73 0.0 0.0 0.00 0.00 0.00 30 1012.5
20260507144017 72 0.0 0.0 0.00 0.00 0.00 31 1012.5
20260507143017 71 0.0 0.0 0.00 0.00 0.00 32 1012.5
20260507142017 70 0.0 0.0 0.00 0.00 0.00 35 1012.6
20260507141017 68 0.0 0.0 0.00 0.00 0.00 34 1012.5
20260507140017 66 0.0 0.0 0.00 0.00 0.00 37 1012.5
20260507135016 65 0.0 0.0 0.00 0.00 0.00 36 1012.4
20260507134016 63 246 1.0 2.0 0.00 0.00 0.00 37 1012.3
20260507133017 63 0.0 0.0 0.00 0.00 0.00 38 1012.0
20260507132016 61 0.0 0.0 0.00 0.00 0.00 40 1012.0
20260507131016 61 0.0 0.0 0.00 0.00 0.00 41 1012.0
20260507130017 60 0.0 0.0 0.00 0.00 0.00 42 1011.9
20260507125016 61 0.0 0.0 0.00 0.00 0.00 40 1011.8
20260507124017 61 0.0 0.0 0.00 0.00 0.00 43 1011.7
20260507123017 62 0.0 0.0 0.00 0.00 0.00 41 1011.7
20260507122016 62 0.0 0.0 0.00 0.00 0.00 41 1011.7
20260507121017 62 0.0 0.0 0.00 0.00 0.00 43 1011.8
20260507120016 62 0.0 0.0 0.00 0.00 0.00 42 1011.8
20260507115017 62 0.0 0.0 0.00 0.00 0.00 40 1011.8
20260507114917 62 0.0 0.0 0.00 0.00 0.00 40 1011.8
20260507113916 62 0.0 0.0 0.00 0.00 0.00 39 1011.8
20260507112917 63 0.0 0.0 0.00 0.00 0.00 38 1011.9
20260507111917 64 0.0 0.0 0.00 0.00 0.00 37 1011.9
20260507110917 63 0.0 0.0 0.00 0.00 0.00 38 1011.9
20260507105917 62 0.0 0.0 0.00 0.00 0.00 40 1012.0
20260507104917 62 0.0 0.0 0.00 0.00 0.00 38 1011.9
20260507103917 63 0.0 0.0 0.00 0.00 0.00 38 1012.0
20260507102916 63 0.0 0.0 0.00 0.00 0.00 39 1011.9
20260507101917 62 0.0 0.0 0.00 0.00 0.00 41 1012.0
20260507101416 62 0.0 0.0 0.00 0.00 0.00 41 1012.0
20260507100417 62 0.0 0.0 0.00 0.00 0.00 43 1012.1
20260507095417 63 0.0 0.0 0.00 0.00 0.00 43 1012.1
20260507095017 64 0.0 0.0 0.00 0.00 0.00 42 1012.1
20260507094016 65 0.0 0.0 0.00 0.00 0.00 40 1012.2
20260507093017 66 0.0 0.0 0.00 0.00 0.00 40 1012.2
20260507092017 65 0.0 0.0 0.00 0.00 0.00 38 1012.1
20260507091017 64 0.0 0.0 0.00 0.00 0.00 39 1012.2
20260507090917 65 0.0 0.0 0.00 0.00 0.00 38 1012.2
20260507085917 65 0.0 0.0 0.00 0.00 0.00 39 1012.2
20260507084917 66 0.0 0.0 0.00 0.00 0.00 37 1012.2
20260507083916 67 0.0 0.0 0.00 0.00 0.00 36 1012.3
20260507082917 68 0.0 0.0 0.00 0.00 0.00 35 1012.4
20260507081917 68 0.0 0.0 0.00 0.00 0.00 35 1012.4
20260507080916 67 0.0 0.0 0.00 0.00 0.00 36 1012.5
20260507075917 68 0.0 0.0 0.00 0.00 0.00 34 1012.5
20260507074916 68 0.0 0.0 0.00 0.00 0.00 35 1012.3
20260507073917 66 0.0 0.0 0.00 0.00 0.00 36 1012.5
20260507072917 67 0.0 0.0 0.00 0.00 0.00 35 1012.6
20260507071916 68 0.0 0.0 0.00 0.00 0.00 34 1012.7
20260507070917 69 177 2.0 3.0 0.00 0.00 0.00 34 1012.6
20260507065916 69 162 0.0 1.0 0.00 0.00 0.00 34 1012.7